QPF
0.00 0.00 0.01 0.02 0.04 0.03 0.03 0.03 0.03 0.04 0.04 0.03 0.03 0.03 0.02 0.01 0.02 0.03 0.05 0.06 0.05 0.05 0.05 0.05 0.04 0.03 0.03 0.03 0.04 0.08 0.10 0.14 0.10 0.10 0.16 0.13 0.13 0.13 0.10 0.06 0.06 0.06 0.08
0.00 0.00 0.01 0.01 0.03 0.03 0.02 0.02 0.03 0.04 0.04 0.04 0.04 0.04 0.03 0.03 0.02 0.04 0.04 0.05 0.06 0.05 0.05 0.06 0.05 0.04 0.03 0.04 0.06 0.12 0.14 0.15 0.09 0.09 0.10 0.11 0.14 0.16 0.12 0.07 0.05 0.05 0.05
0.00 0.00 0.01 0.01 0.02 0.03 0.03 0.03 0.03 0.03 0.04 0.03 0.04 0.05 0.04 0.04 0.04 0.04 0.04 0.04 0.05 0.06 0.07 0.06 0.06 0.05 0.05 0.06 0.09 0.14 0.14 0.13 0.07 0.08 0.07 0.10 0.12 0.14 0.10 0.06 0.05 0.05 0.04
0.00 0.00 0.00 0.01 0.02 0.04 0.04 0.03 0.03 0.03 0.03 0.04 0.06 0.08 0.06 0.05 0.04 0.04 0.04 0.05 0.06 0.07 0.08 0.06 0.06 0.06 0.07 0.08 0.13 0.16 0.11 0.10 0.08 0.07 0.05 0.07 0.09 0.11 0.09 0.06 0.05 0.04 0.04
0.00 0.00 0.00 0.01 0.01 0.02 0.03 0.03 0.03 0.03 0.04 0.05 0.08 0.16 0.13 0.07 0.06 0.05 0.05 0.05 0.06 0.07 0.08 0.07 0.07 0.08 0.07 0.11 0.19 0.16 0.09 0.09 0.08 0.06 0.05 0.06 0.08 0.09 0.07 0.06 0.05 0.06 0.06
0.00 0.00 0.01 0.01 0.01 0.01 0.01 0.02 0.03 0.03 0.05 0.06 0.08 0.12 0.17 0.10 0.08 0.07 0.05 0.06 0.07 0.08 0.08 0.08 0.08 0.11 0.15 0.13 0.19 0.14 0.09 0.07 0.05 0.05 0.04 0.04 0.05 0.06 0.08 0.08 0.08 0.07 0.07
0.00 0.00 0.00 0.01 0.02 0.02 0.02 0.02 0.03 0.05 0.06 0.07 0.07 0.07 0.14 0.12 0.08 0.07 0.06 0.07 0.07 0.07 0.09 0.09 0.07 0.13 0.14 0.10 0.13 0.14 0.11 0.06 0.03 0.04 0.04 0.03 0.04 0.06 0.08 0.09 0.09 0.07 0.06
0.00 0.00 0.01 0.01 0.01 0.02 0.02 0.02 0.03 0.06 0.06 0.07 0.13 0.09 0.09 0.13 0.09 0.07 0.07 0.07 0.08 0.09 0.11 0.12 0.11 0.12 0.12 0.11 0.12 0.11 0.08 0.05 0.03 0.03 0.03 0.04 0.03 0.05 0.06 0.08 0.07 0.07 0.06
0.01 0.01 0.01 0.01 0.01 0.01 0.03 0.05 0.05 0.06 0.08 0.08 0.13 0.17 0.10 0.10 0.09 0.08 0.10 0.10 0.09 0.10 0.11 0.16 0.21 0.16 0.14 0.13 0.13 0.10 0.07 0.05 0.03 0.03 0.04 0.05 0.06 0.07 0.08 0.09 0.07 0.06 0.07
0.03 0.03 0.02 0.01 0.02 0.02 0.04 0.06 0.06 0.07 0.09 0.09 0.08 0.17 0.15 0.14 0.13 0.14 0.15 0.14 0.10 0.09 0.09 0.14 0.18 0.19 0.17 0.15 0.13 0.10 0.07 0.06 0.04 0.04 0.05 0.06 0.09 0.10 0.10 0.10 0.09 0.07 0.07
0.05 0.04 0.03 0.02 0.02 0.02 0.04 0.05 0.06 0.13 0.21 0.16 0.09 0.14 0.16 0.18 0.21 0.19 0.22 0.17 0.11 0.10 0.09 0.11 0.17 0.20 0.18 0.15 0.14 0.11 0.08 0.06 0.05 0.06 0.06 0.06 0.07 0.10 0.13 0.12 0.10 0.07 0.07
0.10 0.05 0.05 0.03 0.02 0.02 0.02 0.04 0.09 0.11 0.14 0.13 0.11 0.10 0.12 0.16 0.20 0.18 0.16 0.15 0.11 0.10 0.10 0.09 0.11 0.13 0.14 0.13 0.14 0.14 0.11 0.08 0.09 0.07 0.05 0.06 0.07 0.07 0.08 0.11 0.10 0.08 0.07
0.05 0.03 0.03 0.03 0.02 0.03 0.03 0.03 0.05 0.08 0.11 0.11 0.11 0.11 0.09 0.11 0.15 0.14 0.11 0.11 0.10 0.10 0.11 0.09 0.07 0.09 0.11 0.10 0.12 0.15 0.13 0.11 0.11 0.08 0.07 0.09 0.09 0.08 0.08 0.10 0.11 0.10 0.09
0.02 0.02 0.02 0.03 0.03 0.03 0.04 0.04 0.04 0.06 0.12 0.12 0.07 0.06 0.06 0.07 0.11 0.11 0.09 0.06 0.06 0.07 0.07 0.07 0.07 0.08 0.10 0.08 0.09 0.12 0.13 0.12 0.15 0.12 0.10 0.14 0.13 0.10 0.09 0.12 0.14 0.13 0.12
0.02 0.02 0.02 0.04 0.04 0.07 0.08 0.06 0.05 0.06 0.08 0.11 0.05 0.05 0.04 0.06 0.08 0.08 0.07 0.06 0.04 0.03 0.03 0.04 0.05 0.07 0.08 0.07 0.06 0.08 0.12 0.14 0.15 0.16 0.13 0.16 0.15 0.12 0.11 0.11 0.12 0.13 0.12
0.03 0.02 0.02 0.04 0.03 0.05 0.09 0.09 0.10 0.06 0.04 0.05 0.05 0.05 0.06 0.06 0.06 0.07 0.08 0.07 0.05 0.03 0.03 0.03 0.04 0.06 0.08 0.07 0.05 0.05 0.09 0.12 0.14 0.14 0.13 0.14 0.14 0.15 0.14 0.13 0.13 0.12 0.12
0.04 0.04 0.02 0.03 0.03 0.03 0.03 0.05 0.07 0.06 0.04 0.04 0.06 0.04 0.05 0.05 0.05 0.06 0.08 0.07 0.05 0.04 0.03 0.03 0.03 0.05 0.06 0.06 0.05 0.05 0.07 0.09 0.10 0.08 0.07 0.07 0.08 0.11 0.14 0.15 0.17 0.16 0.14
0.03 0.03 0.02 0.02 0.03 0.02 0.02 0.02 0.04 0.04 0.05 0.04 0.05 0.04 0.04 0.04 0.03 0.05 0.07 0.06 0.05 0.05 0.04 0.04 0.03 0.05 0.06 0.07 0.07 0.04 0.04 0.05 0.05 0.05 0.05 0.04 0.05 0.06 0.08 0.10 0.15 0.20 0.16
0.02 0.03 0.02 0.02 0.02 0.02 0.02 0.03 0.03 0.03 0.03 0.03 0.03 0.04 0.04 0.04 0.04 0.05 0.06 0.07 0.06 0.06 0.05 0.03 0.04 0.07 0.08 0.08 0.06 0.04 0.03 0.04 0.03 0.03 0.04 0.05 0.05 0.06 0.06 0.05 0.06 0.12 0.20
0.02 0.02 0.02 0.02 0.02 0.02 0.02 0.02 0.02 0.02 0.02 0.02 0.03 0.04 0.03 0.03 0.03 0.04 0.06 0.07 0.07 0.06 0.06 0.05 0.05 0.08 0.10 0.07 0.03 0.03 0.04 0.03 0.03 0.03 0.03 0.04 0.04 0.03 0.03 0.02 0.03 0.05 0.13
0.02 0.02 0.03 0.03 0.02 0.02 0.02 0.02 0.02 0.03 0.03 0.03 0.03 0.04 0.03 0.04 0.04 0.06 0.07 0.08 0.07 0.07 0.07 0.06 0.05 0.08 0.08 0.05 0.04 0.04 0.04 0.03 0.03 0.03 0.02 0.03 0.04 0.03 0.02 0.02 0.02 0.04 0.06
0.02 0.01 0.02 0.03 0.03 0.03 0.03 0.03 0.03 0.03 0.03 0.03 0.03 0.03 0.04 0.04 0.06 0.06 0.07 0.08 0.07 0.08 0.07 0.06 0.06 0.07 0.06 0.04 0.05 0.06 0.07 0.06 0.04 0.02 0.02 0.03 0.03 0.04 0.02 0.02 0.02 0.02 0.04
0.02 0.02 0.02 0.03 0.03 0.04 0.04 0.04 0.03 0.03 0.02 0.02 0.03 0.04 0.04 0.05 0.08 0.08 0.06 0.07 0.08 0.07 0.07 0.07 0.07 0.07 0.05 0.04 0.05 0.07 0.08 0.07 0.04 0.03 0.03 0.03 0.03 0.04 0.03 0.03 0.02 0.02 0.03
0.01 0.02 0.04 0.05 0.04 0.04 0.04 0.04 0.04 0.05 0.05 0.05 0.06 0.07 0.07 0.07 0.09 0.09 0.09 0.08 0.09 0.08 0.07 0.06 0.06 0.07 0.06 0.04 0.04 0.05 0.06 0.06 0.05 0.03 0.03 0.03 0.03 0.03 0.03 0.03 0.03 0.03 0.02
0.02 0.02 0.05 0.06 0.05 0.04 0.05 0.05 0.06 0.07 0.07 0.07 0.07 0.07 0.07 0.07 0.08 0.09 0.11 0.11 0.11 0.08 0.08 0.08 0.08 0.08 0.07 0.06 0.06 0.06 0.05 0.04 0.04 0.04 0.04 0.03 0.02 0.03 0.03 0.02 0.04 0.04 0.04
0.02 0.02 0.03 0.04 0.04 0.04 0.05 0.05 0.06 0.06 0.06 0.06 0.06 0.06 0.07 0.10 0.09 0.07 0.08 0.10 0.11 0.09 0.09 0.10 0.11 0.09 0.09 0.08 0.07 0.06 0.06 0.05 0.04 0.03 0.04 0.04 0.03 0.03 0.03 0.03 0.03 0.03 0.04
MSLP
1011.34 1011.23 1011.24 1011.37 1011.55 1011.73 1011.86 1011.90 1011.85 1011.73 1011.58 1011.46 1011.40 1011.45 1011.60 1011.83 1012.11 1012.41 1012.69 1012.93 1013.12 1013.27 1013.40 1013.51 1013.61 1013.71 1013.79 1013.88 1013.96 1014.03 1014.11 1014.22 1014.35 1014.53 1014.74 1014.98 1015.22 1015.46 1015.67 1015.86 1016.03 1016.19 1016.36
1011.32 1011.29 1011.38 1011.56 1011.78 1011.99 1012.13 1012.16 1012.09 1011.94 1011.76 1011.60 1011.54 1011.58 1011.74 1011.99 1012.30 1012.62 1012.90 1013.13 1013.30 1013.41 1013.50 1013.58 1013.66 1013.76 1013.87 1013.99 1014.10 1014.20 1014.30 1014.40 1014.51 1014.65 1014.81 1015.00 1015.22 1015.44 1015.65 1015.87 1016.07 1016.27 1016.47
1011.30 1011.35 1011.50 1011.74 1012.01 1012.25 1012.40 1012.45 1012.38 1012.22 1012.03 1011.86 1011.77 1011.80 1011.95 1012.18 1012.47 1012.76 1013.01 1013.20 1013.33 1013.41 1013.47 1013.54 1013.64 1013.76 1013.92 1014.08 1014.24 1014.37 1014.47 1014.55 1014.62 1014.70 1014.81 1014.95 1015.12 1015.33 1015.55 1015.79 1016.04 1016.29 1016.54
1011.28 1011.40 1011.62 1011.91 1012.22 1012.50 1012.69 1012.76 1012.71 1012.56 1012.37 1012.20 1012.09 1012.10 1012.20 1012.40 1012.63 1012.86 1013.05 1013.19 1013.27 1013.32 1013.37 1013.45 1013.58 1013.76 1013.96 1014.17 1014.36 1014.51 1014.59 1014.64 1014.65 1014.67 1014.71 1014.80 1014.94 1015.14 1015.38 1015.66 1015.95 1016.26 1016.56
1011.29 1011.47 1011.73 1012.07 1012.42 1012.73 1012.95 1013.05 1013.02 1012.90 1012.72 1012.55 1012.43 1012.41 1012.47 1012.60 1012.77 1012.93 1013.06 1013.14 1013.18 1013.21 1013.26 1013.37 1013.53 1013.75 1014.00 1014.24 1014.44 1014.58 1014.63 1014.62 1014.58 1014.53 1014.51 1014.56 1014.68 1014.88 1015.15 1015.46 1015.81 1016.17 1016.52
1011.32 1011.54 1011.84 1012.21 1012.58 1012.91 1013.16 1013.28 1013.27 1013.17 1013.00 1012.84 1012.72 1012.67 1012.69 1012.78 1012.88 1012.98 1013.05 1013.09 1013.10 1013.13 1013.19 1013.32 1013.51 1013.76 1014.03 1014.27 1014.45 1014.55 1014.55 1014.48 1014.37 1014.27 1014.21 1014.24 1014.36 1014.57 1014.87 1015.23 1015.62 1016.02 1016.41
1011.40 1011.64 1011.96 1012.33 1012.71 1013.04 1013.28 1013.41 1013.41 1013.31 1013.16 1013.00 1012.89 1012.83 1012.83 1012.88 1012.95 1013.01 1013.04 1013.05 1013.06 1013.09 1013.16 1013.30 1013.51 1013.76 1014.01 1014.22 1014.35 1014.39 1014.32 1014.19 1014.03 1013.89 1013.82 1013.84 1013.98 1014.22 1014.55 1014.94 1015.36 1015.79 1016.20
1011.54 1011.78 1012.10 1012.45 1012.80 1013.11 1013.33 1013.43 1013.42 1013.32 1013.17 1013.02 1012.91 1012.86 1012.86 1012.90 1012.96 1013.00 1013.03 1013.03 1013.04 1013.07 1013.16 1013.30 1013.49 1013.71 1013.91 1014.06 1014.12 1014.08 1013.96 1013.77 1013.57 1013.42 1013.35 1013.40 1013.57 1013.85 1014.21 1014.62 1015.05 1015.48 1015.89
1011.75 1011.99 1012.28 1012.60 1012.91 1013.16 1013.33 1013.39 1013.34 1013.22 1013.07 1012.92 1012.82 1012.78 1012.80 1012.85 1012.91 1012.97 1013.00 1013.01 1013.03 1013.06 1013.14 1013.26 1013.43 1013.59 1013.73 1013.80 1013.78 1013.66 1013.47 1013.24 1013.03 1012.89 1012.85 1012.94 1013.15 1013.46 1013.84 1014.25 1014.67 1015.09 1015.48
1012.04 1012.27 1012.54 1012.82 1013.07 1013.25 1013.35 1013.34 1013.24 1013.09 1012.92 1012.78 1012.69 1012.66 1012.70 1012.77 1012.85 1012.92 1012.96 1012.98 1013.00 1013.03 1013.09 1013.18 1013.30 1013.40 1013.46 1013.45 1013.35 1013.17 1012.93 1012.67 1012.46 1012.34 1012.34 1012.47 1012.72 1013.06 1013.44 1013.85 1014.24 1014.62 1014.99
1012.41 1012.63 1012.88 1013.11 1013.29 1013.41 1013.43 1013.35 1013.20 1013.01 1012.82 1012.67 1012.59 1012.58 1012.64 1012.72 1012.81 1012.89 1012.93 1012.95 1012.96 1012.97 1013.00 1013.06 1013.12 1013.16 1013.16 1013.07 1012.91 1012.67 1012.40 1012.13 1011.93 1011.83 1011.87 1012.03 1012.30 1012.65 1013.03 1013.41 1013.77 1014.11 1014.43
1012.81 1013.04 1013.27 1013.47 1013.60 1013.66 1013.61 1013.48 1013.28 1013.05 1012.84 1012.69 1012.61 1012.61 1012.67 1012.76 1012.85 1012.91 1012.94 1012.94 1012.92 1012.91 1012.90 1012.91 1012.93 1012.92 1012.85 1012.72 1012.51 1012.24 1011.94 1011.67 1011.47 1011.39 1011.44 1011.62 1011.89 1012.23 1012.58 1012.93 1013.25 1013.55 1013.84
1013.20 1013.45 1013.68 1013.86 1013.96 1013.97 1013.88 1013.71 1013.48 1013.23 1013.02 1012.86 1012.78 1012.78 1012.83 1012.91 1012.98 1013.02 1013.02 1012.98 1012.93 1012.87 1012.82 1012.79 1012.76 1012.71 1012.61 1012.44 1012.20 1011.91 1011.60 1011.32 1011.11 1011.02 1011.06 1011.22 1011.47 1011.77 1012.09 1012.40 1012.67 1012.94 1013.21
1013.52 1013.80 1014.04 1014.22 1014.32 1014.31 1014.21 1014.02 1013.78 1013.54 1013.32 1013.17 1013.10 1013.10 1013.14 1013.20 1013.23 1013.24 1013.19 1013.10 1012.99 1012.89 1012.80 1012.72 1012.66 1012.57 1012.45 1012.26 1012.00 1011.69 1011.36 1011.06 1010.82 1010.70 1010.69 1010.80 1011.00 1011.25 1011.52 1011.79 1012.03 1012.28 1012.54
1013.74 1014.05 1014.31 1014.51 1014.61 1014.61 1014.52 1014.34 1014.13 1013.90 1013.71 1013.58 1013.52 1013.51 1013.54 1013.58 1013.58 1013.54 1013.44 1013.30 1013.14 1012.98 1012.84 1012.73 1012.63 1012.52 1012.38 1012.17 1011.90 1011.57 1011.21 1010.87 1010.58 1010.38 1010.30 1010.33 1010.45 1010.63 1010.85 1011.07 1011.30 1011.53 1011.80
1013.82 1014.16 1014.45 1014.66 1014.79 1014.81 1014.75 1014.61 1014.44 1014.25 1014.10 1014.00 1013.96 1013.96 1013.99 1014.00 1013.98 1013.90 1013.76 1013.57 1013.35 1013.15 1012.96 1012.81 1012.67 1012.54 1012.37 1012.15 1011.85 1011.49 1011.09 1010.68 1010.32 1010.03 1009.84 1009.77 1009.79 1009.90 1010.05 1010.24 1010.45 1010.68 1010.97
1013.78 1014.14 1014.44 1014.68 1014.83 1014.89 1014.87 1014.79 1014.66 1014.53 1014.43 1014.36 1014.35 1014.36 1014.39 1014.40 1014.36 1014.26 1014.09 1013.86 1013.61 1013.36 1013.13 1012.93 1012.76 1012.58 1012.38 1012.13 1011.80 1011.40 1010.95 1010.47 1010.02 1009.62 1009.32 1009.13 1009.04 1009.05 1009.14 1009.29 1009.49 1009.74 1010.03
1013.66 1014.02 1014.34 1014.59 1014.76 1014.86 1014.89 1014.86 1014.79 1014.71 1014.65 1014.63 1014.64 1014.68 1014.72 1014.73 1014.69 1014.58 1014.39 1014.15 1013.87 1013.58 1013.31 1013.07 1012.84 1012.63 1012.39 1012.09 1011.73 1011.29 1010.78 1010.23 1009.68 1009.17 1008.75 1008.43 1008.23 1008.15 1008.17 1008.28 1008.46 1008.71 1009.02
1013.50 1013.86 1014.18 1014.44 1014.64 1014.77 1014.84 1014.85 1014.84 1014.81 1014.79 1014.80 1014.83 1014.88 1014.93 1014.96 1014.92 1014.82 1014.64 1014.39 1014.10 1013.79 1013.48 1013.19 1012.91 1012.65 1012.36 1012.03 1011.63 1011.15 1010.59 1009.97 1009.34 1008.73 1008.19 1007.75 1007.44 1007.26 1007.20 1007.26 1007.42 1007.65 1007.97
1013.33 1013.70 1014.02 1014.28 1014.50 1014.66 1014.77 1014.83 1014.85 1014.86 1014.87 1014.89 1014.94 1014.99 1015.05 1015.08 1015.06 1014.98 1014.81 1014.57 1014.28 1013.95 1013.61 1013.28 1012.96 1012.65 1012.33 1011.96 1011.53 1011.02 1010.43 1009.76 1009.07 1008.37 1007.73 1007.18 1006.75 1006.47 1006.32 1006.32 1006.43 1006.64 1006.94
1013.19 1013.56 1013.88 1014.16 1014.40 1014.59 1014.73 1014.83 1014.89 1014.92 1014.94 1014.96 1015.00 1015.05 1015.10 1015.13 1015.12 1015.05 1014.91 1014.68 1014.40 1014.07 1013.71 1013.35 1013.00 1012.66 1012.31 1011.92 1011.48 1010.96 1010.36 1009.67 1008.93 1008.17 1007.44 1006.79 1006.25 1005.86 1005.61 1005.53 1005.58 1005.75 1006.01
1013.04 1013.43 1013.77 1014.08 1014.35 1014.58 1014.76 1014.89 1014.98 1015.02 1015.04 1015.05 1015.06 1015.08 1015.11 1015.13 1015.12 1015.06 1014.93 1014.73 1014.46 1014.14 1013.78 1013.41 1013.05 1012.69 1012.33 1011.94 1011.51 1011.01 1010.41 1009.73 1008.97 1008.17 1007.37 1006.63 1005.99 1005.48 1005.13 1004.95 1004.92 1005.03 1005.23
1012.87 1013.29 1013.68 1014.02 1014.33 1014.60 1014.83 1015.00 1015.11 1015.17 1015.18 1015.16 1015.14 1015.12 1015.11 1015.10 1015.08 1015.02 1014.90 1014.72 1014.47 1014.17 1013.82 1013.46 1013.09 1012.74 1012.39 1012.03 1011.63 1011.16 1010.60 1009.95 1009.19 1008.37 1007.52 1006.70 1005.96 1005.35 1004.89 1004.61 1004.49 1004.52 1004.66
1012.63 1013.12 1013.55 1013.95 1014.31 1014.64 1014.91 1015.12 1015.26 1015.33 1015.33 1015.29 1015.23 1015.16 1015.10 1015.05 1015.00 1014.93 1014.83 1014.66 1014.43 1014.15 1013.83 1013.48 1013.14 1012.80 1012.48 1012.16 1011.80 1011.38 1010.88 1010.26 1009.53 1008.71 1007.83 1006.96 1006.14 1005.43 1004.86 1004.48 1004.27 1004.22 1004.29
1012.32 1012.87 1013.36 1013.82 1014.23 1014.61 1014.94 1015.20 1015.37 1015.45 1015.45 1015.39 1015.29 1015.17 1015.07 1014.98 1014.90 1014.81 1014.70 1014.55 1014.34 1014.09 1013.79 1013.47 1013.15 1012.84 1012.55 1012.27 1011.96 1011.60 1011.15 1010.58 1009.89 1009.08 1008.20 1007.29 1006.42 1005.63 1004.99 1004.51 1004.22 1004.09 1004.09
1011.95 1012.56 1013.11 1013.61 1014.08 1014.50 1014.88 1015.17 1015.38 1015.48 1015.49 1015.41 1015.29 1015.14 1014.99 1014.86 1014.76 1014.65 1014.54 1014.40 1014.21 1013.97 1013.70 1013.41 1013.11 1012.82 1012.56 1012.30 1012.03 1011.72 1011.32 1010.80 1010.16 1009.39 1008.53 1007.61 1006.71 1005.89 1005.19 1004.65 1004.29 1004.10 1004.04
Thickness
5810 5807 5794 5791 5789 5787 5785 5784 5782 5781 5780 5778 5777 5775 5774 5774 5773 5772 5771 5769 5769 5768 5767 5767 5766 5765 5764 5764 5764 5763 5762 5762 5761 5760 5759 5758 5757 5757 5756 5755 5755 5755 5751
5812 5804 5792 5789 5786 5784 5783 5781 5780 5779 5777 5776 5774 5773 5772 5771 5770 5769 5768 5767 5766 5765 5765 5764 5763 5763 5762 5761 5761 5761 5760 5759 5759 5758 5757 5756 5755 5754 5753 5753 5754 5754 5751
5809 5801 5792 5787 5784 5781 5780 5778 5777 5776 5775 5773 5772 5770 5769 5768 5767 5766 5765 5764 5764 5763 5762 5761 5761 5760 5760 5759 5759 5758 5757 5757 5756 5756 5756 5758 5756 5753 5751 5751 5751 5750 5748
5805 5798 5792 5784 5781 5779 5777 5776 5774 5773 5772 5770 5769 5767 5766 5765 5764 5763 5762 5761 5761 5760 5759 5759 5758 5758 5757 5757 5756 5756 5756 5755 5755 5755 5758 5759 5757 5752 5749 5748 5747 5747 5746
5801 5795 5788 5782 5778 5776 5774 5773 5772 5771 5769 5768 5766 5764 5764 5762 5761 5761 5760 5759 5758 5757 5757 5756 5755 5755 5754 5754 5754 5754 5754 5753 5754 5755 5758 5757 5755 5750 5748 5746 5745 5744 5743
5798 5794 5786 5779 5776 5773 5771 5770 5769 5768 5767 5765 5763 5762 5761 5760 5759 5758 5757 5756 5755 5755 5754 5753 5752 5752 5752 5752 5751 5751 5751 5752 5753 5757 5757 5756 5754 5748 5746 5744 5743 5742 5741
5796 5792 5784 5776 5772 5770 5768 5767 5766 5765 5764 5762 5761 5759 5758 5757 5755 5755 5754 5753 5753 5752 5751 5750 5750 5749 5748 5749 5748 5748 5748 5749 5754 5756 5755 5754 5750 5745 5743 5742 5741 5740 5739
5794 5789 5781 5773 5770 5767 5765 5764 5763 5761 5760 5759 5757 5756 5754 5753 5753 5752 5752 5751 5750 5750 5749 5747 5747 5746 5746 5746 5745 5745 5746 5747 5752 5754 5753 5750 5746 5742 5741 5739 5739 5737 5736
5791 5786 5780 5774 5768 5764 5762 5761 5760 5758 5757 5755 5754 5752 5751 5750 5750 5749 5749 5748 5748 5747 5746 5745 5744 5743 5743 5743 5743 5742 5743 5745 5750 5752 5751 5747 5742 5739 5738 5737 5736 5735 5734
5786 5783 5779 5774 5769 5766 5762 5758 5757 5755 5753 5752 5751 5749 5748 5748 5747 5747 5746 5745 5744 5744 5743 5742 5741 5740 5740 5740 5740 5740 5741 5742 5748 5749 5747 5743 5738 5736 5735 5734 5732 5731 5731
5778 5777 5775 5773 5769 5766 5763 5758 5755 5752 5750 5749 5748 5746 5746 5748 5748 5745 5744 5741 5741 5741 5740 5739 5738 5738 5738 5738 5737 5737 5739 5744 5747 5745 5743 5738 5735 5733 5731 5730 5729 5728 5728
5772 5772 5771 5769 5766 5763 5761 5757 5754 5753 5749 5749 5747 5745 5745 5744 5743 5743 5740 5738 5738 5737 5737 5736 5736 5736 5737 5740 5738 5737 5741 5743 5743 5741 5738 5733 5731 5730 5729 5728 5727 5726 5726
5771 5769 5768 5766 5762 5760 5758 5755 5754 5751 5747 5746 5744 5742 5741 5741 5740 5739 5739 5737 5736 5736 5737 5736 5736 5738 5739 5739 5739 5739 5739 5740 5740 5738 5734 5730 5728 5727 5726 5725 5725 5724 5723
5769 5766 5765 5762 5759 5757 5755 5753 5750 5748 5745 5744 5741 5739 5739 5738 5737 5737 5736 5737 5736 5736 5735 5736 5736 5735 5735 5736 5736 5737 5736 5737 5736 5734 5730 5727 5725 5724 5723 5722 5722 5721 5720
5767 5764 5761 5759 5755 5752 5749 5748 5747 5745 5743 5740 5738 5736 5735 5736 5735 5734 5733 5732 5734 5734 5734 5733 5733 5732 5733 5733 5734 5734 5733 5733 5733 5732 5728 5724 5722 5721 5720 5719 5719 5718 5717
5764 5761 5760 5756 5752 5749 5746 5744 5743 5743 5739 5738 5736 5734 5732 5733 5732 5730 5729 5728 5729 5729 5730 5730 5730 5729 5730 5730 5730 5730 5730 5729 5728 5726 5726 5722 5720 5719 5717 5716 5716 5715 5714
5762 5759 5756 5754 5750 5746 5744 5742 5741 5740 5738 5736 5734 5731 5729 5729 5727 5727 5726 5726 5726 5725 5725 5726 5726 5727 5726 5727 5726 5726 5726 5726 5725 5723 5722 5722 5720 5717 5715 5714 5713 5712 5712
5760 5756 5753 5753 5748 5744 5741 5739 5739 5737 5735 5734 5731 5729 5726 5725 5723 5723 5723 5724 5722 5722 5722 5723 5723 5723 5722 5723 5723 5723 5724 5722 5721 5720 5720 5719 5718 5718 5714 5712 5711 5710 5710
5757 5753 5750 5749 5746 5743 5740 5737 5736 5733 5732 5730 5729 5727 5724 5722 5720 5720 5721 5719 5718 5719 5719 5720 5719 5718 5717 5717 5718 5718 5719 5719 5717 5717 5716 5716 5714 5713 5713 5710 5709 5708 5707
5755 5751 5748 5746 5743 5740 5738 5735 5733 5730 5729 5728 5726 5723 5721 5720 5718 5718 5718 5715 5716 5715 5714 5714 5713 5713 5713 5712 5715 5713 5713 5714 5713 5713 5713 5712 5711 5710 5710 5709 5708 5706 5705
5751 5747 5745 5742 5740 5737 5735 5732 5729 5726 5725 5725 5723 5720 5719 5717 5716 5715 5715 5713 5712 5712 5710 5711 5710 5709 5709 5709 5708 5706 5707 5709 5708 5708 5709 5709 5708 5707 5706 5706 5706 5706 5704
5747 5745 5743 5740 5738 5735 5733 5730 5727 5724 5723 5722 5721 5718 5716 5714 5713 5713 5711 5711 5709 5708 5707 5706 5705 5706 5705 5704 5702 5700 5699 5701 5702 5706 5705 5704 5704 5704 5704 5704 5702 5701 5702
5745 5742 5741 5738 5735 5733 5730 5728 5724 5720 5719 5718 5716 5715 5713 5712 5710 5708 5708 5707 5706 5706 5705 5702 5702 5701 5700 5700 5701 5698 5695 5694 5696 5699 5699 5700 5700 5700 5701 5701 5700 5698 5698
5743 5741 5738 5735 5732 5729 5727 5725 5722 5718 5716 5714 5713 5712 5710 5708 5707 5705 5704 5703 5703 5703 5701 5701 5700 5699 5697 5697 5697 5696 5695 5694 5690 5691 5695 5696 5696 5696 5697 5697 5697 5695 5694
5740 5738 5735 5731 5728 5726 5724 5722 5718 5717 5715 5713 5711 5708 5706 5705 5703 5702 5701 5699 5698 5699 5698 5697 5695 5695 5695 5694 5694 5692 5690 5689 5689 5687 5686 5689 5692 5694 5693 5693 5692 5692 5691
5738 5736 5733 5729 5724 5722 5721 5719 5716 5714 5711 5709 5706 5705 5704 5702 5701 5699 5698 5696 5695 5695 5694 5693 5692 5691 5691 5689 5689 5689 5687 5686 5685 5685 5683 5683 5684 5688 5689 5688 5689 5689 5688